TimeEST,TemperatureF,Dew PointF,Humidity,Sea Level PressureIn,VisibilityMPH,Wind Direction,Wind SpeedMPH,Gust SpeedMPH,PrecipitationIn,Events,Conditions,WindDirDegrees,DateUTC
12:07 AM,23.0,16.0,74,29.95,10.0,West,13.8,20.7,N/A,,Overcast,260,2014-02-26 05:07:00
12:41 AM,23.0,17.1,78,29.94,3.0,WNW,11.5,-,0.00,Snow,Light Snow,290,2014-02-26 05:41:00
12:47 AM,23.0,17.6,80,29.94,1.8,West,9.2,-,0.00,Snow,Light Snow,270,2014-02-26 05:47:00
12:53 AM,21.9,17.1,82,29.99,1.5,West,12.7,19.6,0.00,Snow,Light Snow,280,2014-02-26 05:53:00
1:01 AM,21.9,17.1,82,29.94,3.0,West,11.5,21.9,0.00,Snow,Light Snow,280,2014-02-26 06:01:00
1:15 AM,21.9,16.0,78,29.93,5.0,West,13.8,20.7,0.00,Snow,Light Snow,260,2014-02-26 06:15:00
1:53 AM,21.9,12.9,68,29.99,10.0,West,18.4,24.2,0.00,,Partly Cloudy,260,2014-02-26 06:53:00
2:24 AM,21.9,12.0,66,29.92,10.0,WSW,12.7,24.2,N/A,,Overcast,250,2014-02-26 07:24:00
2:49 AM,21.2,12.2,68,29.92,10.0,West,13.8,24.2,N/A,,Overcast,270,2014-02-26 07:49:00
2:53 AM,21.0,12.0,68,29.98,10.0,West,9.2,19.6,N/A,,Overcast,270,2014-02-26 07:53:00
3:36 AM,19.9,12.9,74,29.91,2.5,West,13.8,21.9,0.00,Snow,Light Snow,280,2014-02-26 08:36:00
3:49 AM,19.4,14.0,80,29.91,7.0,WNW,10.4,-,0.00,Snow,Light Snow,290,2014-02-26 08:49:00
3:50 AM,19.9,14.0,78,29.97,8.0,WNW,9.2,-,0.00,Snow,Light Snow,290,2014-02-26 08:50:00
4:53 AM,19.0,10.9,71,29.98,8.0,WNW,11.5,23.0,0.00,,Overcast,290,2014-02-26 09:53:00
5:53 AM,17.1,10.9,77,30.01,5.0,NNW,12.7,-,0.00,Snow,Light Snow,330,2014-02-26 10:53:00
6:21 AM,16.0,10.9,81,29.96,2.5,WNW,13.8,23.0,0.00,Snow,Light Snow,300,2014-02-26 11:21:00
6:29 AM,16.0,10.0,77,29.96,9.0,WNW,11.5,-,0.00,,Overcast,300,2014-02-26 11:29:00
6:42 AM,16.0,8.1,71,29.97,10.0,WNW,13.8,-,0.00,,Overcast,290,2014-02-26 11:42:00
6:53 AM,16.0,7.0,68,30.04,10.0,WNW,12.7,-,0.00,,Overcast,300,2014-02-26 11:53:00
7:27 AM,15.1,7.0,70,29.99,10.0,NW,10.4,-,N/A,,Overcast,310,2014-02-26 12:27:00
7:38 AM,15.1,7.0,70,30.00,10.0,NW,10.4,-,N/A,,Overcast,310,2014-02-26 12:38:00
7:53 AM,15.1,7.0,70,30.07,10.0,West,10.4,-,N/A,,Overcast,270,2014-02-26 12:53:00
8:03 AM,15.1,6.1,68,30.01,10.0,West,11.5,-,N/A,,Overcast,280,2014-02-26 13:03:00
8:11 AM,16.0,6.1,65,30.02,10.0,West,8.1,-,N/A,,Overcast,280,2014-02-26 13:11:00
8:43 AM,15.1,7.0,70,30.03,4.0,WNW,10.4,-,0.00,Snow,Light Snow,290,2014-02-26 13:43:00
8:51 AM,15.8,8.6,73,30.04,2.0,NW,11.5,-,0.00,Snow,Light Snow,310,2014-02-26 13:51:00
8:53 AM,15.1,8.1,74,30.10,2.5,WNW,13.8,-,0.00,Snow,Light Snow,290,2014-02-26 13:53:00
9:01 AM,15.1,6.1,68,30.03,8.0,WNW,10.4,19.6,0.00,,Overcast,290,2014-02-26 14:01:00
9:15 AM,16.0,5.0,62,30.04,10.0,NW,12.7,-,0.00,,Overcast,310,2014-02-26 14:15:00
9:29 AM,15.1,7.0,70,30.04,3.0,NW,12.7,-,0.00,Snow,Light Snow,310,2014-02-26 14:29:00
9:35 AM,15.1,7.0,70,30.04,1.8,NW,8.1,-,0.00,Snow,Light Snow,310,2014-02-26 14:35:00
9:41 AM,15.1,7.0,70,30.04,3.0,WNW,8.1,-,0.00,Snow,Light Snow,300,2014-02-26 14:41:00
9:50 AM,15.8,6.8,68,30.04,4.0,NW,12.7,-,0.00,Snow,Light Snow,310,2014-02-26 14:50:00
9:53 AM,15.1,7.0,70,30.11,4.0,NW,11.5,-,0.00,Snow,Light Snow,320,2014-02-26 14:53:00
10:00 AM,15.1,7.0,70,30.04,6.0,NW,11.5,-,0.00,,Haze,320,2014-02-26 15:00:00
10:11 AM,17.1,8.1,68,30.04,10.0,NNW,10.4,-,0.00,,Overcast,330,2014-02-26 15:11:00
10:21 AM,15.1,7.0,70,30.05,1.8,WNW,13.8,-,0.00,Snow,Light Snow,290,2014-02-26 15:21:00
10:31 AM,12.9,7.0,77,30.05,0.8,WNW,16.1,23.0,0.00,Snow,Light Snow,290,2014-02-26 15:31:00
10:37 AM,14.0,6.1,71,30.05,2.0,WNW,9.2,21.9,0.00,Snow,Light Snow,290,2014-02-26 15:37:00
10:45 AM,15.1,8.1,74,30.05,5.0,WNW,11.5,-,0.00,Snow,Light Snow,290,2014-02-26 15:45:00
10:53 AM,17.1,7.0,65,30.11,9.0,NW,9.2,-,0.00,,Mostly Cloudy,310,2014-02-26 15:53:00
11:02 AM,19.0,6.1,57,30.05,10.0,West,18.4,-,N/A,,Mostly Cloudy,270,2014-02-26 16:02:00
11:53 AM,17.1,7.0,65,30.08,9.0,NW,10.4,18.4,0.00,,Overcast,310,2014-02-26 16:53:00
12:53 PM,19.9,1.9,46,30.04,10.0,WNW,12.7,16.1,N/A,,Mostly Cloudy,290,2014-02-26 17:53:00
1:53 PM,19.0,-0.0,43,30.01,10.0,NW,10.4,21.9,N/A,,Mostly Cloudy,310,2014-02-26 18:53:00
2:53 PM,19.0,1.0,46,29.98,10.0,West,8.1,-,N/A,,Mostly Cloudy,270,2014-02-26 19:53:00
3:53 PM,21.0,1.9,44,29.96,10.0,West,16.1,-,N/A,,Partly Cloudy,280,2014-02-26 20:53:00
4:53 PM,19.9,1.9,46,29.94,10.0,West,11.5,-,N/A,,Clear,260,2014-02-26 21:53:00
5:53 PM,19.0,1.0,46,29.92,10.0,West,6.9,-,N/A,,Clear,260,2014-02-26 22:53:00
6:53 PM,18.0,1.0,48,29.91,10.0,West,8.1,-,N/A,,Clear,260,2014-02-26 23:53:00
7:53 PM,17.1,1.0,50,29.90,10.0,West,9.2,-,N/A,,Clear,260,2014-02-27 00:53:00
8:53 PM,17.1,1.0,50,29.88,10.0,WSW,10.4,-,N/A,,Clear,250,2014-02-27 01:53:00
9:53 PM,15.1,1.9,56,29.87,10.0,WSW,9.2,-,N/A,,Clear,240,2014-02-27 02:53:00
10:53 PM,15.1,3.0,59,29.85,10.0,WSW,8.1,-,N/A,,Clear,240,2014-02-27 03:53:00
11:53 PM,15.1,3.0,59,29.83,10.0,SW,11.5,-,N/A,,Partly Cloudy,230,2014-02-27 04:53:00